Maxwell AFB, AL

5:46 AM CDT on May 29, 2017 (GMT -0500)
Maxwell Air Force Base

Weather History for KMXF - December, 2012

Change the Weather History Date:

Friday, December 14, 2012

  Actual Average Record
Temperature  
Mean Temperature 49 °F -  
Max Temperature 62 °F 58 °F 74 °F (2011)
Min Temperature 36 °F 38 °F 18 °F (2010)
Degree Days  
Heating Degree Days 16    
Moisture  
Dew Point 39 °F    
Average Humidity 86    
Maximum Humidity 100    
Minimum Humidity 45    
Precipitation  
Precipitation 0.00 in - - ()
Sea Level Pressure  
Sea Level Pressure 30.30 in    
Wind  
Wind Speed 2 mph (NE)    
Max Wind Speed 10 mph    
Max Gust Speed -    
Visibility 6 miles    
Events Fog    
Averages and records for this station are not official NWS values.
T = Trace of Precipitation, MM = Missing Value Source: NWS Daily Summary

Daily Weather History Graph

Daily Weather History Graph

Search for Another Location

Airport or City:

Trip Planner

Search our weather history database for the weather conditions in past years. The results will help you decide how hot, cold, wet, or windy it might be!

Date:

Astronomy

Dec. 14, 2012 Rise Set
Actual Time 6:39 AM CST 4:41 PM CST
Civil Twilight 6:11 AM CST 5:08 PM CST
Nautical Twilight 5:41 AM CST 5:39 PM CST
Astronomical Twilight 5:11 AM CST 6:09 PM CST
Moon 7:46 AM CST (12/14) 6:29 PM CST (12/14)
Length of Visible Light 10h 56m
Length of Day
10h 02m
Waxing Crescent, 3% of the Moon is Illuminated
Dec 14
Waxing Crescent
Dec 19
First Quarter
Dec 28
Full
Jan 4
Last Quarter
Jan 11
New

Hourly Weather History & Observations

Time (CST) Temp. Windchill Dew Point Humidity Pressure Visibility Wind Dir Wind Speed Gust Speed Precip Events Conditions
12:55 AM 39.6 °F 37.4 °F 37.8 °F 93% 30.33 in 10.0 mi NNW 3.5 mph - N/A   Clear
1:27 AM 39.2 °F 37.0 °F 39.2 °F 100% 30.33 in 2.5 mi NNW 3.5 mph - N/A   Clear
1:30 AM 39.2 °F - 39.2 °F 100% 30.33 in 1.5 mi Calm Calm - N/A   Clear
1:37 AM 39.2 °F - 39.2 °F 100% 30.34 in 3.0 mi Calm Calm - N/A   Clear
1:55 AM 39.4 °F - 38.5 °F 97% 30.34 in 7.0 mi Calm Calm - N/A   Clear
1:59 AM 39.2 °F - 39.2 °F 100% 30.34 in 2.5 mi Calm Calm - N/A   Clear
2:02 AM 39.2 °F - 37.4 °F 93% 30.34 in 1.5 mi Calm Calm - N/A   Clear
2:04 AM 39.2 °F - 37.4 °F 93% 30.34 in 1.2 mi Calm Calm - N/A   Clear
2:05 AM 39.2 °F - 37.4 °F 93% 30.33 in 1.2 mi Calm Calm - N/A   Clear
2:07 AM 39.2 °F - 37.4 °F 93% 30.34 in 1.2 mi Calm Calm - N/A   Clear
2:08 AM 39.2 °F - 37.4 °F 93% 30.33 in 1.5 mi Calm Calm - N/A   Clear
2:10 AM 39.2 °F - 37.4 °F 93% 30.33 in 2.0 mi Calm Calm - N/A   Clear
2:12 AM 39.2 °F 37.0 °F 37.4 °F 93% 30.33 in 3.0 mi NE 3.5 mph - N/A   Clear
2:55 AM 38.5 °F - 37.6 °F 97% 30.33 in 10.0 mi Calm Calm - N/A   Clear
3:55 AM 38.1 °F 35.7 °F 37.2 °F 97% 30.35 in 9.0 mi NNW 3.5 mph - N/A   Clear
4:55 AM 38.1 °F 35.7 °F 37.0 °F 96% 30.34 in 10.0 mi NNE 3.5 mph - N/A   Clear
5:55 AM 36.3 °F 33.7 °F 35.4 °F 97% 30.34 in 9.0 mi North 3.5 mph - N/A   Clear
6:27 AM 37.4 °F - 35.6 °F 93% 30.35 in 0.8 mi Calm Calm - N/A   Clear
6:29 AM 37.4 °F - 35.6 °F 93% 30.34 in 0.5 mi Calm Calm - N/A Fog Fog
6:37 AM 37.4 °F - 35.6 °F 93% 30.35 in 0.8 mi Calm Calm - N/A   Clear
6:40 AM 37.4 °F - 35.6 °F 93% 30.36 in 1.0 mi Calm Calm - N/A   Clear
6:43 AM 37.4 °F - 35.6 °F 93% 30.36 in 1.2 mi Calm Calm - N/A   Clear
6:48 AM 37.4 °F - 35.6 °F 93% 30.36 in 2.0 mi Calm Calm - N/A   Clear
6:55 AM 36.5 °F 33.9 °F 36.0 °F 98% 30.35 in 2.5 mi NE 3.5 mph - N/A   Clear
6:59 AM 37.4 °F 34.9 °F 35.6 °F 93% 30.35 in 3.0 mi NE 3.5 mph - N/A   Clear
7:55 AM 40.3 °F 37.1 °F 39.7 °F 98% 30.36 in 10.0 mi NNE 4.6 mph - N/A   Clear
8:55 AM 47.1 °F - 43.0 °F 86% 30.37 in 10.0 mi East 5.8 mph - N/A   Clear
9:55 AM 51.3 °F - 43.2 °F 74% 30.35 in 10.0 mi ESE 9.2 mph - N/A   Partly Cloudy
10:55 AM 56.1 °F - 42.6 °F 61% 30.32 in 10.0 mi East 10.4 mph - N/A   Clear
11:55 AM 58.5 °F - 42.1 °F 55% 30.29 in 10.0 mi Variable 5.8 mph - N/A   Clear
12:55 PM 59.9 °F - 42.6 °F 53% 30.25 in 10.0 mi ESE 6.9 mph - N/A   Clear
1:55 PM 61.2 °F - 42.1 °F 50% 30.22 in 10.0 mi Variable 3.5 mph - N/A   Clear
2:55 PM 62.4 °F - 41.0 °F 45% 30.23 in 10.0 mi ESE 3.5 mph - N/A   Clear
3:55 PM 61.9 °F - 40.8 °F 46% 30.22 in 10.0 mi Calm Calm - N/A   Clear
4:55 PM 55.0 °F - 43.3 °F 65% 30.22 in 10.0 mi Calm Calm - N/A   Clear
5:55 PM 48.7 °F - 43.7 °F 83% 30.22 in 10.0 mi Calm Calm - N/A   Clear
6:55 PM 48.4 °F - 43.7 °F 84% 30.18 in 10.0 mi NE 4.6 mph - N/A   Mostly Cloudy
7:55 PM 50.5 °F - 42.8 °F 75% 30.20 in 10.0 mi Calm Calm - N/A   Mostly Cloudy
8:55 PM 48.2 °F - 44.4 °F 87% 30.19 in 10.0 mi Calm Calm - N/A   Overcast
9:55 PM 49.3 °F - 44.2 °F 83% 30.17 in 10.0 mi Calm Calm - N/A   Overcast
10:55 PM 48.7 °F - 44.8 °F 86% 30.19 in 10.0 mi WNW 4.6 mph - N/A   Overcast
11:55 PM 49.1 °F - 44.8 °F 85% 30.19 in 10.0 mi Calm Calm - N/A   Overcast